Simultaneous Nadir Overpasses (SNOs) Predictions

Prediction of SNOs between AQUA and METOP-C Satellite Orbit:

Table of predicted SNOs for the next 14.0 days since TLE Epoch: 1/8/2022
Index Date (AQUA) Time (AQUA) Lat,Lon (AQUA) SZA (AQUA ) Date (METOP-C) Time (METOP-C) Lat,Lon (METOP-C) SZA (METOP-C ) Distance(km) Time Diff (sec)
1 01/09/2022 22:44:09 73.55,-166.15 95.57 01/09/2022 22:42:57 73.51,-166.91 95.57 24.32 72
2 01/09/2022 23:33:39 -73.77, 1.02 84.21 01/09/2022 23:33:33 -73.77, 1.03 84.21 0.19 6
3 01/10/2022 00:23:08 73.86, 168.46 95.89 01/10/2022 00:24:12 73.84, 168.53 95.86 3.08 64
4 01/12/2022 18:18:27 73.69,-100.01 95.29 01/12/2022 18:17:16 73.71,-100.04 95.32 2.01 71
5 01/12/2022 19:07:55 -73.80, 67.39 84.61 01/12/2022 19:07:56 -73.78, 67.45 84.63 3.34 1
6 01/12/2022 19:57:23 73.85,-125.06 95.44 01/12/2022 19:58:35 73.84,-125.07 95.42 0.84 72
7 01/15/2022 13:52:42 73.69, -33.55 94.79 01/15/2022 13:51:39 73.71, -33.64 94.83 3.46 63
8 01/15/2022 14:42:10 -73.79, 133.86 85.10 01/15/2022 14:42:19 -73.78, 133.87 85.12 1.22 9
9 01/15/2022 15:31:43 74.10, -59.19 95.22 01/15/2022 15:32:53 74.08, -58.07 95.16 34.18 70
10 01/18/2022 09:26:57 73.75, 32.78 94.31 01/18/2022 09:26:00 73.75, 32.87 94.32 2.95 57
11 01/18/2022 10:16:24 -73.80,-159.69 85.65 01/18/2022 10:16:41 -73.79,-159.71 85.65 1.07 17
12 01/18/2022 11:06:02 74.36, 6.64 94.97 01/18/2022 11:07:09 74.37, 9.07 94.88 72.69 67
13 01/21/2022 05:01:12 73.76, 99.19 93.73 01/21/2022 05:00:23 73.74, 99.26 93.72 2.85 49
14 01/21/2022 05:50:39 -73.81, -93.27 86.23 01/21/2022 05:51:04 -73.79, -93.30 86.25 2.21 25



Historial Predications of SNOs between AQUA and METOP-C
